Time,TemperatureF,DewpointF,PressureIn,WindDirection,WindDirectionDegrees,WindSpeedMPH,WindSpeedGustMPH,Humidity,HourlyPrecipIn,Conditions,Clouds,dailyrainin,SoftwareType,DateUTC
2013-01-19 00:02:00,34.0,32.0,30.18,NNE,19,0.0,0.0,93,0.00,,,0.00,,2013-01-19 08:02:00,
2013-01-19 00:12:00,34.0,32.0,30.18,NNE,19,0.0,0.0,93,0.00,,,0.00,,2013-01-19 08:12:00,
2013-01-19 00:22:00,34.0,32.0,30.18,NNE,19,0.0,0.0,93,0.00,,,0.00,,2013-01-19 08:22:00,
2013-01-19 00:32:00,34.0,32.0,30.18,NNE,19,0.0,0.0,93,0.00,,,0.00,,2013-01-19 08:32:00,
2013-01-19 00:42:00,34.0,32.0,30.18,NNE,19,0.0,0.0,93,0.00,,,0.00,,2013-01-19 08:42:00,
2013-01-19 00:52:00,33.0,31.0,30.19,NNE,19,0.0,0.0,93,0.00,,,0.00,,2013-01-19 08:52:00,
2013-01-19 01:02:00,33.0,31.0,30.19,NNE,19,0.0,0.0,93,0.00,,,0.00,,2013-01-19 09:02:00,
2013-01-19 01:12:00,33.0,31.0,30.19,NNE,19,0.0,0.0,93,0.00,,,0.00,,2013-01-19 09:12:00,
2013-01-19 01:22:00,32.0,30.0,30.19,NNE,19,0.0,0.0,94,0.00,,,0.00,,2013-01-19 09:22:00,
2013-01-19 01:32:00,33.0,32.0,30.20,NNE,19,0.0,0.0,95,0.00,,,0.00,,2013-01-19 09:32:00,
2013-01-19 01:42:00,33.0,32.0,30.20,NNE,19,0.0,0.0,95,0.00,,,0.00,,2013-01-19 09:42:00,
2013-01-19 01:52:00,33.0,32.0,30.20,NNE,19,0.0,0.0,95,0.00,,,0.00,,2013-01-19 09:52:00,
2013-01-19 02:02:00,33.0,32.0,30.20,NNE,19,0.0,0.0,95,0.00,,,0.00,,2013-01-19 10:02:00,
2013-01-19 02:12:00,33.0,32.0,30.20,NNE,19,0.0,0.0,95,0.00,,,0.00,,2013-01-19 10:12:00,
2013-01-19 02:22:00,32.0,30.0,30.21,NNE,19,0.0,0.0,94,0.00,,,0.00,,2013-01-19 10:22:00,
2013-01-19 02:32:00,32.0,30.0,30.21,NNE,19,0.0,0.0,94,0.00,,,0.00,,2013-01-19 10:32:00,
2013-01-19 02:42:00,32.0,30.0,30.21,NNE,19,0.0,0.0,94,0.00,,,0.00,,2013-01-19 10:42:00,
2013-01-19 02:52:00,31.0,29.0,30.21,NNE,19,0.0,0.0,94,0.00,,,0.00,,2013-01-19 10:52:00,
2013-01-19 03:02:00,32.0,31.0,30.21,NNE,19,0.0,0.0,96,0.00,,,0.00,,2013-01-19 11:02:00,
2013-01-19 03:12:00,32.0,31.0,30.21,NNE,19,0.0,0.0,96,0.00,,,0.00,,2013-01-19 11:12:00,
2013-01-19 04:53:00,31.0,30.0,30.22,NNE,19,0.0,0.0,96,0.00,,,0.00,,2013-01-19 12:53:00,
2013-01-19 05:02:00,31.0,29.0,30.22,NNE,19,0.0,0.0,94,0.00,,,0.00,,2013-01-19 13:02:00,
2013-01-19 05:12:00,31.0,29.0,30.22,NNE,19,0.0,0.0,94,0.00,,,0.00,,2013-01-19 13:12:00,
2013-01-19 05:22:00,30.0,28.0,30.22,NNE,19,0.0,0.0,94,0.00,,,0.00,,2013-01-19 13:22:00,
2013-01-19 05:33:00,30.0,28.0,30.22,NNE,19,0.0,0.0,94,0.00,,,0.00,,2013-01-19 13:33:00,
2013-01-19 05:42:00,30.0,28.0,30.22,NNE,19,0.0,0.0,94,0.00,,,0.00,,2013-01-19 13:42:00,
2013-01-19 05:53:00,30.0,29.0,30.23,NNE,19,0.0,0.0,95,0.00,,,0.00,,2013-01-19 13:53:00,
2013-01-19 06:02:00,29.0,28.0,30.24,NNE,19,0.0,0.0,95,0.00,,,0.00,,2013-01-19 14:02:00,
2013-01-19 06:12:00,29.0,28.0,30.24,NNE,19,0.0,0.0,95,0.00,,,0.00,,2013-01-19 14:12:00,
2013-01-19 06:22:00,29.0,28.0,30.24,NNE,19,0.0,0.0,95,0.00,,,0.00,,2013-01-19 14:22:00,
2013-01-19 06:33:00,29.0,28.0,30.24,NNE,19,0.0,0.0,95,0.00,,,0.00,,2013-01-19 14:33:00,
2013-01-19 06:42:00,29.0,28.0,30.24,NNE,19,0.0,0.0,95,0.00,,,0.00,,2013-01-19 14:42:00,
2013-01-19 06:53:00,29.0,28.0,30.24,NNE,19,0.0,0.0,95,0.00,,,0.00,,2013-01-19 14:53:00,
2013-01-19 07:02:00,29.0,28.0,30.24,NNE,19,0.0,0.0,96,0.00,,,0.00,,2013-01-19 15:02:00,
2013-01-19 07:12:00,29.0,28.0,30.24,NNE,19,0.0,0.0,96,0.00,,,0.00,,2013-01-19 15:12:00,
2013-01-19 07:22:00,29.0,28.0,30.24,NNE,19,0.0,0.0,96,0.00,,,0.00,,2013-01-19 15:22:00,
2013-01-19 07:33:00,29.0,28.0,30.24,NNE,19,0.0,0.0,96,0.00,,,0.00,,2013-01-19 15:33:00,
2013-01-19 07:42:00,29.0,28.0,30.24,NNE,19,0.0,0.0,96,0.00,,,0.00,,2013-01-19 15:42:00,
2013-01-19 07:53:00,29.0,28.0,30.24,NNE,19,0.0,0.0,96,0.00,,,0.00,,2013-01-19 15:53:00,
2013-01-19 08:02:00,29.0,28.0,30.24,NNE,19,0.0,0.0,96,0.00,,,0.00,,2013-01-19 16:02:00,
2013-01-19 08:12:00,29.0,28.0,30.24,NNE,19,0.0,0.0,96,0.00,,,0.00,,2013-01-19 16:12:00,
2013-01-19 08:22:00,29.0,28.0,30.25,NNE,19,0.0,0.0,96,0.00,,,0.00,,2013-01-19 16:22:00,
2013-01-19 08:33:00,30.0,29.0,30.25,NNE,19,0.0,0.0,97,0.00,,,0.00,,2013-01-19 16:33:00,
2013-01-19 08:42:00,30.0,29.0,30.25,NNE,19,0.0,0.0,97,0.00,,,0.00,,2013-01-19 16:42:00,
2013-01-19 08:53:00,31.0,31.0,30.26,NNE,19,0.0,0.0,98,0.00,,,0.00,,2013-01-19 16:53:00,
2013-01-19 09:02:00,33.0,32.0,30.27,NNE,19,0.0,0.0,98,0.00,,,0.00,,2013-01-19 17:02:00,
2013-01-19 09:24:00,35.0,34.0,30.27,NNE,19,0.0,1.0,98,0.00,,,0.00,,2013-01-19 17:24:00,
2013-01-19 09:33:00,37.0,36.0,30.28,NNE,19,0.0,0.0,98,0.00,,,0.00,,2013-01-19 17:33:00,
2013-01-19 09:45:00,37.0,36.0,30.28,NNE,19,0.0,0.0,98,0.00,,,0.00,,2013-01-19 17:45:00,
2013-01-19 09:53:00,40.0,38.0,30.28,NNE,19,0.0,1.0,94,0.00,,,0.00,,2013-01-19 17:53:00,
2013-01-19 10:05:00,42.0,38.0,30.28,NNE,19,0.0,2.0,86,0.00,,,0.00,,2013-01-19 18:05:00,
2013-01-19 10:12:00,42.0,38.0,30.28,NNE,19,0.0,2.0,86,0.00,,,0.00,,2013-01-19 18:12:00,
2013-01-19 10:23:00,45.0,39.0,30.28,NNE,19,0.0,2.0,80,0.00,,,0.00,,2013-01-19 18:23:00,
2013-01-19 10:33:00,47.0,40.0,30.28,North,350,0.0,3.0,77,0.00,,,0.00,,2013-01-19 18:33:00,
2013-01-19 10:43:00,47.0,40.0,30.28,North,350,0.0,3.0,77,0.00,,,0.00,,2013-01-19 18:43:00,
2013-01-19 11:04:00,49.0,40.0,30.28,NNW,342,1.0,4.0,72,0.00,,,0.00,,2013-01-19 19:04:00,
2013-01-19 11:13:00,49.0,40.0,30.28,NNW,342,1.0,4.0,72,0.00,,,0.00,,2013-01-19 19:13:00,
2013-01-19 11:23:00,50.0,40.0,30.27,WNW,303,1.0,4.0,68,0.00,,,0.00,,2013-01-19 19:23:00,
2013-01-19 11:35:00,51.0,37.0,30.27,NNW,331,3.0,6.0,58,0.00,,,0.00,,2013-01-19 19:35:00,
2013-01-19 11:54:00,52.0,38.0,30.26,WNW,300,1.0,7.0,59,0.00,,,0.00,,2013-01-19 19:54:00,
2013-01-19 12:06:00,53.0,38.0,30.25,NNE,16,1.0,4.0,56,0.00,,,0.00,,2013-01-19 20:06:00,
2013-01-19 12:12:00,53.0,38.0,30.25,NNE,16,1.0,4.0,56,0.00,,,0.00,,2013-01-19 20:12:00,
2013-01-19 12:23:00,54.0,39.0,30.24,North,11,0.0,5.0,56,0.00,,,0.00,,2013-01-19 20:23:00,
2013-01-19 12:35:00,55.0,38.0,30.23,NW,319,1.0,5.0,53,0.00,,,0.00,,2013-01-19 20:35:00,
2013-01-19 12:43:00,55.0,38.0,30.23,NW,319,1.0,5.0,53,0.00,,,0.00,,2013-01-19 20:43:00,
2013-01-19 13:02:00,58.0,38.0,30.22,NNE,18,1.0,4.0,47,0.00,,,0.00,,2013-01-19 21:02:00,
2013-01-19 13:12:00,58.0,38.0,30.22,NNE,18,1.0,4.0,47,0.00,,,0.00,,2013-01-19 21:12:00,
2013-01-19 13:22:00,59.0,38.0,30.22,WNW,302,0.0,5.0,45,0.00,,,0.00,,2013-01-19 21:22:00,
2013-01-19 13:44:00,59.0,38.0,30.22,WNW,302,0.0,5.0,45,0.00,,,0.00,,2013-01-19 21:44:00,
2013-01-19 13:58:00,60.0,36.0,30.21,NNW,332,2.0,6.0,40,0.00,,,0.00,,2013-01-19 21:58:00,
2013-01-19 14:15:00,60.0,35.0,30.20,NNE,32,1.0,5.0,39,0.00,,,0.00,,2013-01-19 22:15:00,
2013-01-19 14:23:00,61.0,35.0,30.20,NNW,335,0.0,4.0,38,0.00,,,0.00,,2013-01-19 22:23:00,
2013-01-19 14:33:00,62.0,36.0,30.19,NNW,331,0.0,4.0,38,0.00,,,0.00,,2013-01-19 22:33:00,
2013-01-19 14:55:00,63.0,37.0,30.19,NNW,347,2.0,4.0,38,0.00,,,0.00,,2013-01-19 22:55:00,
2013-01-19 15:03:00,63.0,37.0,30.19,NNW,347,2.0,4.0,38,0.00,,,0.00,,2013-01-19 23:03:00,
2013-01-19 15:13:00,63.0,37.0,30.19,NNW,347,2.0,4.0,38,0.00,,,0.00,,2013-01-19 23:13:00,
2013-01-19 15:23:00,62.0,37.0,30.19,North,355,1.0,5.0,39,0.00,,,0.00,,2013-01-19 23:23:00,
2013-01-19 15:33:00,62.0,35.0,30.18,NNW,338,1.0,5.0,36,0.00,,,0.00,,2013-01-19 23:33:00,
2013-01-19 15:44:00,62.0,35.0,30.18,NNW,338,1.0,5.0,36,0.00,,,0.00,,2013-01-19 23:44:00,
2013-01-19 15:55:00,62.0,33.0,30.18,NNE,24,0.0,3.0,33,0.00,,,0.00,,2013-01-19 23:55:00,
2013-01-19 16:07:00,62.0,33.0,30.18,North,11,1.0,4.0,33,0.00,,,0.00,,2013-01-20 00:07:00,
2013-01-19 16:14:00,62.0,33.0,30.18,North,11,1.0,4.0,33,0.00,,,0.00,,2013-01-20 00:14:00,
2013-01-19 16:23:00,62.0,33.0,30.17,NNE,21,0.0,3.0,34,0.00,,,0.00,,2013-01-20 00:23:00,
2013-01-19 16:34:00,62.0,35.0,30.17,NNE,26,0.0,2.0,36,0.00,,,0.00,,2013-01-20 00:34:00,
2013-01-19 16:44:00,62.0,35.0,30.17,NNE,26,0.0,2.0,36,0.00,,,0.00,,2013-01-20 00:44:00,
2013-01-19 16:53:00,62.0,35.0,30.17,NNE,26,0.0,1.0,36,0.00,,,0.00,,2013-01-20 00:53:00,
2013-01-19 17:03:00,61.0,34.0,30.17,NNW,333,0.0,2.0,36,0.00,,,0.00,,2013-01-20 01:03:00,
2013-01-19 17:15:00,61.0,34.0,30.17,NNW,333,0.0,2.0,36,0.00,,,0.00,,2013-01-20 01:15:00,
2013-01-19 17:22:00,60.0,34.0,30.17,NNW,333,0.0,1.0,37,0.00,,,0.00,,2013-01-20 01:22:00,
2013-01-19 17:34:00,58.0,34.0,30.17,NNW,333,0.0,0.0,40,0.00,,,0.00,,2013-01-20 01:34:00,
2013-01-19 17:45:00,58.0,34.0,30.17,NNW,333,0.0,0.0,40,0.00,,,0.00,,2013-01-20 01:45:00,
2013-01-19 18:03:00,54.0,34.0,30.17,NNW,333,0.0,0.0,46,0.00,,,0.00,,2013-01-20 02:03:00,
2013-01-19 18:13:00,54.0,34.0,30.17,NNW,333,0.0,0.0,46,0.00,,,0.00,,2013-01-20 02:13:00,
2013-01-19 18:23:00,50.0,34.0,30.17,NW,321,0.0,2.0,53,0.00,,,0.00,,2013-01-20 02:23:00,
2013-01-19 18:34:00,48.0,33.0,30.16,NW,321,0.0,0.0,56,0.00,,,0.00,,2013-01-20 02:34:00,
2013-01-19 19:12:00,46.0,33.0,30.17,NW,321,0.0,0.0,60,0.00,,,0.00,,2013-01-20 03:12:00,
2013-01-19 19:23:00,45.0,33.0,30.17,NW,321,0.0,0.0,63,0.00,,,0.00,,2013-01-20 03:23:00,
2013-01-19 19:36:00,44.0,34.0,30.17,NW,321,0.0,0.0,67,0.00,,,0.00,,2013-01-20 03:36:00,
2013-01-19 19:44:00,44.0,34.0,30.17,NW,321,0.0,0.0,67,0.00,,,0.00,,2013-01-20 03:44:00,
2013-01-19 19:53:00,43.0,33.0,30.18,NW,321,0.0,0.0,68,0.00,,,0.00,,2013-01-20 03:53:00,
2013-01-19 20:13:00,42.0,34.0,30.18,NW,321,0.0,0.0,72,0.00,,,0.00,,2013-01-20 04:13:00,
2013-01-19 20:23:00,41.0,35.0,30.19,NW,321,0.0,0.0,78,0.00,,,0.00,,2013-01-20 04:23:00,
2013-01-19 20:33:00,40.0,34.0,30.19,NW,321,0.0,0.0,79,0.00,,,0.00,,2013-01-20 04:33:00,
2013-01-19 20:43:00,40.0,34.0,30.19,NW,321,0.0,0.0,79,0.00,,,0.00,,2013-01-20 04:43:00,
2013-01-19 20:53:00,39.0,34.0,30.20,NW,321,0.0,0.0,82,0.00,,,0.00,,2013-01-20 04:53:00,
2013-01-19 21:02:00,39.0,34.0,30.20,NW,321,0.0,0.0,82,0.00,,,0.00,,2013-01-20 05:02:00,
2013-01-19 21:12:00,39.0,34.0,30.20,NW,321,0.0,0.0,82,0.00,,,0.00,,2013-01-20 05:12:00,
2013-01-19 21:22:00,39.0,34.0,30.20,NW,321,0.0,0.0,82,0.00,,,0.00,,2013-01-20 05:22:00,
2013-01-19 21:32:00,38.0,34.0,30.21,NW,321,0.0,0.0,84,0.00,,,0.00,,2013-01-20 05:32:00,
2013-01-19 21:42:00,38.0,34.0,30.21,NW,321,0.0,0.0,84,0.00,,,0.00,,2013-01-20 05:42:00,
2013-01-19 21:53:00,38.0,34.0,30.21,NW,321,0.0,0.0,86,0.00,,,0.00,,2013-01-20 05:53:00,
2013-01-19 22:02:00,38.0,34.0,30.21,NW,321,0.0,0.0,86,0.00,,,0.00,,2013-01-20 06:02:00,
2013-01-19 22:11:00,38.0,34.0,30.21,NW,321,0.0,0.0,86,0.00,,,0.00,,2013-01-20 06:11:00,
2013-01-19 22:22:00,38.0,34.0,30.21,NW,321,0.0,0.0,86,0.00,,,0.00,,2013-01-20 06:22:00,
2013-01-19 22:32:00,36.0,33.0,30.22,NW,321,0.0,0.0,89,0.00,,,0.00,,2013-01-20 06:32:00,
2013-01-19 22:43:00,36.0,33.0,30.22,NW,321,0.0,0.0,89,0.00,,,0.00,,2013-01-20 06:43:00,
2013-01-19 22:53:00,36.0,33.0,30.23,NW,321,0.0,0.0,89,0.00,,,0.00,,2013-01-20 06:53:00,
2013-01-19 23:02:00,36.0,33.0,30.23,NW,321,0.0,0.0,90,0.00,,,0.00,,2013-01-20 07:02:00,
2013-01-19 23:11:00,36.0,33.0,30.23,NW,321,0.0,0.0,90,0.00,,,0.00,,2013-01-20 07:11:00,
2013-01-19 23:22:00,35.0,32.0,30.23,NW,321,0.0,0.0,90,0.00,,,0.00,,2013-01-20 07:22:00,
2013-01-19 23:32:00,35.0,32.0,30.23,NW,321,0.0,0.0,90,0.00,,,0.00,,2013-01-20 07:32:00,
2013-01-19 23:42:00,35.0,32.0,30.23,NW,321,0.0,0.0,90,0.00,,,0.00,,2013-01-20 07:42:00,
2013-01-19 23:52:00,35.0,32.0,30.23,NW,321,0.0,0.0,90,0.00,,,0.00,,2013-01-20 07:52:00,